Simultaneous Nadir Overpasses (SNOs) Predictions

Prediction of SNOs between NOAA-15 and METOP-C Satellite Orbit:

Table of predicted SNOs for the next 14.0 days since TLE Epoch: 9/13/2019
Index Date (NOAA-15) Time (NOAA-15) Lat,Lon (NOAA-15) SZA (NOAA-15 ) Date (METOP-C) Time (METOP-C) Lat,Lon (METOP-C) SZA (METOP-C ) Distance(km) Time Diff (sec)
1 09/15/2019 09:48:13 80.84, 66.82 79.42 09/15/2019 09:46:59 80.85, 66.84 79.40 1.49 74
2 09/15/2019 10:38:48 -80.86,-126.16 100.59 09/15/2019 10:37:40 -80.84,-126.03 100.61 2.77 68
3 09/15/2019 11:29:15 80.84, 41.44 79.44 09/15/2019 11:28:20 80.84, 41.35 79.41 1.64 55
4 09/15/2019 12:19:50 -80.84,-151.18 100.55 09/15/2019 12:19:01 -80.85,-151.17 100.56 0.97 49
5 09/15/2019 13:10:18 80.85, 16.06 79.46 09/15/2019 13:09:41 80.85, 16.21 79.47 2.73 37
6 09/15/2019 14:00:53 -80.85,-176.56 100.53 09/15/2019 14:00:23 -80.84,-176.66 100.55 1.78 30
7 09/15/2019 14:51:21 80.86, -9.32 79.49 09/15/2019 14:51:03 80.85, -9.28 79.47 1.39 18
8 09/15/2019 15:41:56 -80.86, 158.06 100.51 09/15/2019 15:41:44 -80.85, 158.21 100.50 2.68 12
9 09/15/2019 16:32:23 80.84, -34.34 79.52 09/15/2019 16:32:24 80.86, -34.41 79.53 1.88 1
10 09/15/2019 17:22:59 -80.86, 132.68 100.48 09/15/2019 17:23:06 -80.85, 132.72 100.49 1.82 7
11 09/15/2019 18:13:26 80.85, -59.72 79.55 09/15/2019 18:13:46 80.85, -59.90 79.54 3.21 20
12 09/15/2019 19:04:01 -80.85, 107.65 100.44 09/15/2019 19:04:27 -80.86, 107.59 100.43 1.51 26
13 09/15/2019 19:54:29 80.86, -85.10 79.57 09/15/2019 19:55:07 80.86, -85.04 79.59 1.18 38
14 09/15/2019 20:45:04 -80.86, 82.27 100.42 09/15/2019 20:45:49 -80.85, 82.10 100.43 3.18 45
15 09/15/2019 21:35:32 80.86,-110.48 79.59 09/15/2019 21:36:29 80.85,-110.53 79.60 1.46 57
16 09/15/2019 22:26:07 -80.86, 56.89 100.40 09/15/2019 22:27:10 -80.86, 56.96 100.37 1.24 63




NCC Satellite Simultaneous Nadir Overpasses (SNOs) Prediction Service
